Regional Weather Roundup
Issued by NWS

Home | Current Version | Previous Version | Graphics & Text | Print | Product List | Glossary On
Versions: 1 2 3 4 5 6 7 8 9 10 11 12 13 14 15 16 17 18 19 20 21 22 23 24 25 26 27 28 29 30 31 32 33 34 35 36 37 38 39 40 41 42 43 44 45 46 47 48 49 50
000
ASUS43 KLSX 252207
RWRMO

WEATHER SUMMARY FOR MISSOURI
NATIONAL WEATHER SERVICE SPRINGFIELD MO
500 PM CDT MON JUL 25 2016

NOTE: "FAIR" INDICATES FEW OR NO CLOUDS BELOW 12,000 FEET WITH NO
       SIGNIFICANT WEATHER AND/OR OBSTRUCTIONS TO VISIBILITY.
       CURRENT SKY AND/OR WEATHER CONDITIONS ARE NOT AVAILABLE FOR
       CHILLICOTHE AND FARMINGTON.

MOZ001>031-035>038-043-044-053-054-252300-
...NORTHERN AND WESTERN MISSOURI...

CITY           SKY/WX    TMP DP  RH WIND       PRES   REMARKS
KANSAS CTY INT PTSUNNY   84  67  56 NE8       30.03R
KANSAS C DTWN  CLOUDY    88  68  51 VRB7      30.00R HX  91
LEE`S SUMMIT   CLOUDY    84  72  67 NE13      30.02S
ST JOSEPH      MOSUNNY   87  62  43 NE9       30.02F
CHILLICOTHE      N/A     88  63  43 N9        30.02F
KIRKSVILLE     SUNNY     86  65  49 N13       30.03F

$$
MOZ066>068-077>081-088>096-101>105-252300-
...SOUTHWEST MISSOURI...

CITY           SKY/WX    TMP DP  RH WIND       PRES   REMARKS
SPRINGFIELD    PTSUNNY   83  71  67 NE9       30.00R
JOPLIN         CLOUDY    83  73  72 N8        30.00R
BRANSON        PTSUNNY   81  72  74 E5        29.99F

$$
MOZ032>034-039>042-045>050-055>058-069>072-252300-
...CENTRAL MISSOURI...

CITY           SKY/WX    TMP DP  RH WIND       PRES   REMARKS
COLUMBIA       PTSUNNY   83  72  69 N9        30.00S
JEFFERSON CITY CLOUDY    84  72  67 NE7       29.98F
ROLLA          CLOUDY    81  73  76 N9        29.99S
SEDALIA        MOSUNNY   84  73  69 NE8       30.02S HX  90
OSAGE BEACH    CLOUDY    81  75  82 NE8       30.00R

$$
MOZ051-052-059>065-252300-
...EAST CENTRAL MISSOURI...

CITY           SKY/WX    TMP DP  RH WIND       PRES   REMARKS
ST LOUIS INTL  PTSUNNY   87  75  67 NW12      29.97S HX  96
SPIRIT OF STL  PTSUNNY   86  76  71 N12       29.96S HX  96
ST CHARLES     PTSUNNY   84  77  79 N12       29.96S HX  94

$$
MOZ072>076-082>087-097>100-106>115-252300-
...SOUTH CENTRAL AND SOUTHEAST MISSOURI...

CITY           SKY/WX    TMP DP  RH WIND       PRES   REMARKS
CAPE GIRARDEAU CLOUDY    81  75  82 CALM      29.96R
FARMINGTON     MOSUNNY   89  73  59 VRB6      29.97F HX  97
POPLAR BLUFF   CLOUDY    82  76  81 CALM      29.95F
WEST PLAINS    PTSUNNY   86  72  62 N8        29.99F HX  92

$$



USA.gov is the U.S. government's official web portal to all federal, state and local government web resources and services.